{"data":{"norad_id":66423,"intl_designator":"2025-259B","name":"STARLINK-35618","alt_names":[],"object_type":"PAYLOAD","status":"ACTIVE","operator":null,"country":"US","launch_date":"2025-11-11","launch_site_code":"AFETR","launch_vehicle":null,"mission":null,"orbit_class":"UNKNOWN","rcs_meters":null,"size_class":null,"mass_kg":null,"dimensions":null,"purposes":["comms"],"wikipedia_slug":null,"has_3d_model":false,"image_url":null,"decayed_at":null,"tle_current":{"epoch":"2026-05-25T03:38:45.976128Z","epoch_age_seconds":61944,"freshness":"FRESH","line1":"1 66423U 25259B   26145.15192102  .00021958  00000+0  80412-3 0  9995","line2":"2 66423  43.0006 202.6738 0001106 299.5921  60.4820 15.27619472 31186","mean_motion":15.27619472,"eccentricity":0.0001106,"inclination_deg":43.0006,"raan_deg":202.6738,"arg_perigee_deg":299.5921,"mean_anomaly_deg":60.482,"bstar":0.00080412,"rev_number":3118,"period_min":94.264312964976,"perigee_km":482.17207110635,"apogee_km":483.68973932699,"semimajor_km":6861.0679052167,"source":"CELESTRAK","updated_at":"2026-05-25T13:38:21.206748Z"}}}